Weather History for Versailles, OH

Change the Weather History Date:

Thursday, February 6, 2014

  Actual Average (KDAY) Record (KDAY)
Temperature  
Mean Temperature 10 °F 29 °F  
Max Temperature 19 °F 37 °F 61 °F (1925)
Min Temperature -2 °F 21 °F -8 °F (1977)
Degree Days  
Heating Degree Days 56 36  
Month to date heating degree days 218  
Since 1 July heating degree days 3541  
Cooling Degree Days 0 0  
Month to date cooling degree days 0  
Year to date cooling degree days 0  
Moisture  
Dew Point 8 °F    
Average Humidity 85    
Maximum Humidity 100    
Minimum Humidity 72    
Precipitation  
Precipitation 0.00 in 0.08 in 1.06 in (1991)
Month to date precipitation 0.49  
Year to date precipitation 3.20  
Snow  
Snow 0.00 in 0.20 in 4.50 in (1972)
Month to date snowfall 1.4  
Since 1 July snowfall 14.8  
Snow Depth -    
Sea Level Pressure  
Sea Level Pressure 30.37 in    
Wind  
Wind Speed 7 mph (West)    
Max Wind Speed 16 mph    
Max Gust Speed -    
Visibility 8 miles    
Events Snow    
T = Trace of Precipitation, MM = Missing Value Source: NWS Daily Summary

Daily Weather History Graph

Daily Weather History Graph

Search for Another Location

Airport:

Trip Planner

Search our weather history database for the weather conditions in past years. The results will help you decide how hot, cold, wet, or windy it might be!

Date:

Astronomy

Feb. 06, 2014 Rise Set
Actual Time 7:41 AM EST 6:03 PM EST
Civil Twilight 7:13 AM EST 6:31 PM EST
Nautical Twilight 6:41 AM EST 7:03 PM EST
Astronomical Twilight 6:09 AM EST 7:35 PM EST
Moon 11:34 AM EST (2/6) 12:56 AM EST (2/6)
Length of Visible Light 11h 17m
Length of Day
10h 21m
Waxing Crescent, 49% of the Moon is Illuminated
Feb 6
Waxing Crescent
Feb 6
First Quarter
Feb 14
Full
Feb 22
Last Quarter
Mar 1
New

Hourly Weather History & Observations

Time (EST) Temp. Windchill Dew Point Humidity Pressure Visibility Wind Dir Wind Speed Gust Speed Precip Events Conditions
12:15 AM 19.4 °F 12.8 °F 19.4 °F 100% 30.34 in 5.0 mi WNW 4.6 mph - N/A Snow Light Snow
12:35 AM 19.4 °F 14.3 °F 19.4 °F 100% 30.34 in 4.0 mi WNW 3.5 mph - N/A Snow Light Snow
12:55 AM 19.4 °F 12.8 °F 19.4 °F 100% 30.34 in 4.0 mi WNW 4.6 mph - N/A Snow Light Snow
1:15 AM 19.4 °F 12.8 °F 19.4 °F 100% 30.33 in 5.0 mi WNW 4.6 mph - N/A Snow Light Snow
1:35 AM 19.4 °F 9.5 °F 19.4 °F 100% 30.34 in 5.0 mi WNW 8.1 mph - N/A Snow Light Snow
1:55 AM 19.4 °F 8.6 °F 15.8 °F 86% 30.35 in 7.0 mi WNW 9.2 mph - N/A Snow Light Snow
2:15 AM 17.6 °F 6.4 °F 15.8 °F 93% 30.35 in 7.0 mi WNW 9.2 mph - N/A Snow Light Snow
2:35 AM 17.6 °F 5.7 °F 15.8 °F 93% 30.34 in 7.0 mi NW 10.4 mph - N/A Snow Light Snow
2:55 AM 17.6 °F 6.4 °F 14.0 °F 86% 30.35 in 7.0 mi NW 9.2 mph - N/A Snow Light Snow
3:15 AM 17.6 °F 8.2 °F 14.0 °F 86% 30.35 in 7.0 mi NW 6.9 mph - N/A Snow Light Snow
3:35 AM 17.6 °F 7.3 °F 14.0 °F 86% 30.35 in 7.0 mi NW 8.1 mph - N/A Snow Light Snow
3:55 AM 17.6 °F 8.2 °F 14.0 °F 86% 30.34 in 5.0 mi NW 6.9 mph - N/A Snow Light Snow
4:15 AM 15.8 °F 5.1 °F 14.0 °F 93% 30.34 in 7.0 mi NNW 8.1 mph - N/A Snow Light Snow
4:35 AM 15.8 °F 5.1 °F 14.0 °F 93% 30.34 in 7.0 mi NNW 8.1 mph - N/A Snow Light Snow
4:55 AM 15.8 °F 5.1 °F 14.0 °F 93% 30.34 in 10.0 mi North 8.1 mph - N/A Snow Light Snow
5:15 AM 14.0 °F 5.1 °F 12.2 °F 93% 30.35 in 10.0 mi North 5.8 mph - N/A Snow Light Snow
5:35 AM 12.2 °F 6.1 °F 10.4 °F 92% 30.35 in 10.0 mi NW 3.5 mph - N/A   Scattered Clouds
5:55 AM 12.2 °F 2.9 °F 10.4 °F 92% 30.36 in 10.0 mi West 5.8 mph - N/A   Clear
6:15 AM 12.2 °F 4.3 °F 10.4 °F 92% 30.36 in 10.0 mi West 4.6 mph - N/A   Clear
6:35 AM 10.4 °F 2.2 °F 8.6 °F 92% 30.37 in 10.0 mi West 4.6 mph - N/A   Clear
6:55 AM 8.6 °F 2.0 °F 8.6 °F 100% 30.37 in 10.0 mi WSW 3.5 mph - N/A   Clear
7:15 AM 8.6 °F 2.0 °F 6.8 °F 92% 30.36 in 10.0 mi WSW 3.5 mph - N/A   Clear
7:35 AM 8.6 °F - 8.6 °F 100% 30.37 in 10.0 mi Calm Calm - N/A   Clear
7:55 AM 6.8 °F - 5.0 °F 92% 30.37 in 10.0 mi Calm Calm - N/A   Clear
8:15 AM 6.8 °F - 5.0 °F 92% 30.37 in 10.0 mi Calm Calm - N/A   Clear
8:35 AM 6.8 °F - 5.0 °F 92% 30.37 in 10.0 mi Calm Calm - N/A   Clear
8:55 AM 8.6 °F -1.3 °F 5.0 °F 85% 30.39 in 7.0 mi West 5.8 mph - N/A   Clear
9:15 AM 10.4 °F -0.4 °F 8.6 °F 92% 30.39 in 10.0 mi West 6.9 mph - N/A   Mostly Cloudy
9:35 AM 10.4 °F 2.2 °F 8.6 °F 92% 30.39 in 4.0 mi West 4.6 mph - N/A Snow Light Snow
9:55 AM 14.0 °F 5.1 °F 12.2 °F 93% 30.39 in 5.0 mi WSW 5.8 mph - N/A Snow Light Snow
10:15 AM 15.8 °F 6.1 °F 14.0 °F 93% 30.40 in 7.0 mi WSW 6.9 mph - N/A   Mostly Cloudy
10:35 AM 15.8 °F 6.1 °F 14.0 °F 93% 30.40 in 10.0 mi WSW 6.9 mph - N/A   Mostly Cloudy
10:55 AM 17.6 °F 5.7 °F 14.0 °F 86% 30.40 in 7.0 mi West 10.4 mph - N/A Snow Light Snow
11:15 AM 17.6 °F 5.0 °F 14.0 °F 86% 30.41 in 7.0 mi West 11.5 mph - N/A Snow Light Snow
11:35 AM 17.6 °F 5.7 °F 14.0 °F 86% 30.40 in 7.0 mi West 10.4 mph - N/A   Overcast
11:55 AM 17.6 °F 5.0 °F 14.0 °F 86% 30.41 in 10.0 mi West 11.5 mph - N/A   Overcast
12:15 PM 17.6 °F 4.3 °F 12.2 °F 79% 30.40 in 5.0 mi West 12.7 mph - N/A Snow Light Snow
12:35 PM 15.8 °F 2.7 °F 12.2 °F 86% 30.39 in 5.0 mi West 11.5 mph - N/A Snow Light Snow
12:55 PM 15.8 °F 2.1 °F 12.2 °F 86% 30.39 in 5.0 mi West 12.7 mph - N/A Snow Light Snow
1:15 PM 17.6 °F 5.7 °F 12.2 °F 79% 30.37 in 10.0 mi West 10.4 mph - N/A Snow Light Snow
1:35 PM 15.8 °F 1.4 °F 12.2 °F 86% 30.37 in 4.0 mi West 13.8 mph - N/A Snow Light Snow
1:55 PM 15.8 °F 1.4 °F 10.4 °F 79% 30.36 in 5.0 mi West 13.8 mph - N/A Snow Light Snow
2:15 PM 15.8 °F 2.1 °F 10.4 °F 79% 30.36 in 3.0 mi West 12.7 mph - N/A Snow Light Snow
2:35 PM 15.8 °F 1.4 °F 10.4 °F 79% 30.36 in 7.0 mi West 13.8 mph - N/A Snow Light Snow
2:55 PM 15.8 °F 0.9 °F 10.4 °F 79% 30.35 in 10.0 mi West 15.0 mph - N/A Snow Light Snow
3:15 PM 15.8 °F 2.7 °F 10.4 °F 79% 30.35 in 10.0 mi West 11.5 mph - N/A Snow Light Snow
3:35 PM 15.8 °F 3.4 °F 10.4 °F 79% 30.35 in 10.0 mi WSW 10.4 mph - N/A Snow Light Snow
3:55 PM 15.8 °F 0.3 °F 10.4 °F 79% 30.35 in 10.0 mi West 16.1 mph - N/A   Overcast
4:15 PM 14.0 °F -0.2 °F 10.4 °F 86% 30.35 in 7.0 mi WNW 12.7 mph - N/A Snow Light Snow
4:35 PM 12.2 °F -2.5 °F 8.6 °F 85% 30.35 in 4.0 mi WNW 12.7 mph - N/A Snow Light Snow
4:55 PM 10.4 °F -1.5 °F 5.0 °F 79% 30.35 in 7.0 mi West 8.1 mph - N/A Snow Light Snow
5:15 PM 10.4 °F -4.1 °F 3.2 °F 73% 30.35 in 10.0 mi West 11.5 mph - N/A   Mostly Cloudy
5:35 PM 8.6 °F -5.5 °F 1.4 °F 73% 30.35 in 10.0 mi West 10.4 mph - N/A   Scattered Clouds
5:55 PM 6.8 °F -7.8 °F 1.4 °F 79% 30.35 in 10.0 mi WNW 10.4 mph - N/A   Clear
6:15 PM 5.0 °F -8.1 °F -0.4 °F 78% 30.35 in 10.0 mi West 8.1 mph - N/A   Clear
6:35 PM 5.0 °F -9.1 °F -0.4 °F 78% 30.36 in 10.0 mi West 9.2 mph - N/A   Scattered Clouds
6:55 PM 5.0 °F -8.1 °F -2.2 °F 72% 30.36 in 10.0 mi West 8.1 mph - N/A   Overcast
7:15 PM 3.2 °F -9.1 °F -2.2 °F 78% 30.36 in 10.0 mi West 6.9 mph - N/A   Mostly Cloudy
7:35 PM 3.2 °F -11.3 °F -4.0 °F 72% 30.37 in 10.0 mi West 9.2 mph - N/A   Scattered Clouds
7:55 PM 3.2 °F -11.3 °F -4.0 °F 72% 30.37 in 10.0 mi West 9.2 mph - N/A   Scattered Clouds
8:15 PM 1.4 °F -12.5 °F -4.0 °F 78% 30.37 in 10.0 mi West 8.1 mph - N/A   Scattered Clouds
8:35 PM 1.4 °F -12.5 °F -4.0 °F 78% 30.38 in 10.0 mi West 8.1 mph - N/A   Clear
8:55 PM 1.4 °F -12.5 °F -4.0 °F 78% 30.38 in 10.0 mi West 8.1 mph - N/A   Clear
9:15 PM 1.4 °F -11.3 °F -4.0 °F 78% 30.38 in 10.0 mi West 6.9 mph - N/A   Clear
9:35 PM 1.4 °F -13.5 °F -4.0 °F 78% 30.38 in 10.0 mi West 9.2 mph - N/A   Clear
9:55 PM 1.4 °F -12.5 °F -4.0 °F 78% 30.38 in 10.0 mi West 8.1 mph - N/A   Clear
10:15 PM -0.4 °F -14.7 °F -5.8 °F 78% 30.38 in 10.0 mi West 8.1 mph - N/A   Clear
10:35 PM -0.4 °F -14.7 °F -5.8 °F 78% 30.38 in 10.0 mi West 8.1 mph - N/A   Clear
10:55 PM -0.4 °F -17.6 °F -5.8 °F 78% 30.38 in 10.0 mi West 11.5 mph - N/A   Clear
11:15 PM -0.4 °F -15.7 °F -5.8 °F 78% 30.37 in 10.0 mi WNW 9.2 mph - N/A   Clear
11:35 PM -0.4 °F -14.7 °F -5.8 °F 78% 30.38 in 10.0 mi WNW 8.1 mph - N/A   Clear
11:55 PM -2.2 °F -15.6 °F -7.6 °F 78% 30.38 in 10.0 mi WNW 6.9 mph - N/A   Clear